This demonstration page uses our WeatherBlox Daily Observations layout. Learn more.

Left ArrowRight Arrow

39.08367, -84.50855

Hourly Observations for April 3, 2015

Temp ( °F °C ) Dew Point ( °F °C ) Humidity (%) Winds ( mph kmh ) Pressure ( in mb ) Visibility ( mi km ) Precip ( " mm )
12:00 am 00:00 Cloudy with Nearby Thunderstorms 61 16 59 15 94 94 N N/A 29.91 1013 3 5 N/A
12:11 am 00:11 Cloudy with Strong Thunderstorms 59 15 59 15 100 100 SW 3 6 29.91 1013 2 3 0.10 2.54
12:28 am 00:28 Mostly Cloudy with Thunderstorms 59 15 59 15 100 100 ENE 3 6 29.88 1012 3 4 N/A
12:35 am 00:35 Cloudy with Thunderstorms 59 15 59 15 100 100 SE 6 9 29.88 1012 3 5 0.25 6.35
12:44 am 00:44 Cloudy with Nearby Thunderstorms 59 15 59 15 100 100 N 3 6 29.88 1012 3 5 N/A
12:53 am 00:53 Cloudy with Thunderstorms 58 14.4 58 14.4 100 100 SE 8 13 29.85 1011 3 5 0.29 7.37
1:13 am 01:13 Cloudy with Strong Thunderstorms 58 14.4 58 14.4 100 100 SSW 5 7 29.88 1012 3 5 0.06 1.52
1:28 am 01:28 Cloudy with Strong Thunderstorms 57 14 57 14 100 100 SSW 5 7 29.88 1012 3 4 N/A
1:32 am 01:32 Cloudy with Nearby Thunderstorms 58 14.4 58 14.4 100 100 S 5 7 29.88 1012 3 4 0.16 4.06
1:35 am 01:35 Cloudy with Heavy Rain 58 14.4 58 14.4 100 100 S 5 7 29.88 1012 3 4 0.17 4.32
1:40 am 01:40 Cloudy with Thunderstorms 59 15 59 15 100 100 SSE 7 11 29.88 1012 3 5 N/A
1:53 am 01:53 Cloudy with Heavy Rain 59 15 59 15 100 100 SSE 18 30 29.81 1010 4 6 0.27 6.86
2:12 am 02:12 Cloudy 59 15 N/A N/A WSW 8 13 29.85 1011 10 16 N/A
2:35 am 02:35 Cloudy 57 14 N/A N/A S 6 9 29.83 1010 10 16 0.01 0.25
2:53 am 02:53 Cloudy 57 14 N/A N/A S 6 9 29.84 1010 10 16 0.01 0.25
3:41 am 03:41 Cloudy 57 14 N/A N/A S 6 9 29.85 1011 10 16 N/A
3:53 am 03:53 Cloudy 57 14 N/A N/A N N/A 29.83 1010 10 16 N/A
4:16 am 04:16 Cloudy 57 14 N/A N/A N N/A 29.83 1010 10 16 N/A
4:51 am 04:51 Cloudy with Nearby Thunderstorms 57 14 N/A N/A SSW 3 6 29.85 1011 8 13 0.01 0.25
4:53 am 04:53 Cloudy with Nearby Thunderstorms 57 14 N/A N/A SW 3 6 29.85 1011 8 13 0.01 0.25
5:13 am 05:13 Cloudy with Light Rain 57 14 N/A N/A S 9 15 29.83 1010 8 13 0.03 0.76
5:18 am 05:18 Cloudy with Nearby Thunderstorms 57 14 N/A N/A WNW 7 11 29.85 1011 8 13 0.03 0.76
5:25 am 05:25 Cloudy with Thunderstorms 57 14 N/A N/A WNW 5 7 29.88 1012 6 10 0.05 1.27
5:34 am 05:34 Cloudy with Strong Thunderstorms 57 14 N/A N/A WNW 9 15 29.88 1012 4 6 0.08 2.03
5:38 am 05:38 Cloudy with Strong Thunderstorms 57 14 N/A N/A SSW 7 11 29.85 1011 2 3 N/A
5:43 am 05:43 Cloudy with Heavy Rain 57 14 N/A N/A S 12 19 29.85 1011 2 2 0.21 5.33
5:45 am 05:45 Cloudy with Heavy Rain 57 14 N/A N/A SSE 12 19 29.85 1011 1 2 0.23 5.84
5:53 am 05:53 Cloudy with Thunderstorms 57 14 N/A N/A S 13 20 29.85 1011 3 5 0.26 6.60
6:08 am 06:08 Cloudy with Heavy Rain 57 14 N/A N/A VRB 3 6 29.88 1012 3 4 N/A
6:13 am 06:13 Cloudy with Thunderstorms 57 14 N/A N/A S 7 11 29.85 1011 2 3 0.09 2.29
6:18 am 06:18 Cloudy with Thunderstorms 57 14 N/A N/A S 17 28 29.83 1010 3 5 N/A
6:34 am 06:34 Cloudy with Nearby Thunderstorms 57 14 N/A N/A SW 13 20 29.88 1012 6 10 N/A
6:41 am 06:41 Cloudy with Nearby Thunderstorms 57 14 N/A N/A SSW 15 24 29.88 1012 5 8 0.18 4.57
6:48 am 06:48 Cloudy with Thunderstorms 57 14 N/A N/A SSW 10 17 29.88 1012 5 8 N/A
6:53 am 06:53 Cloudy with Thunderstorms 57 14 N/A N/A SSW 10 17 29.88 1012 5 8 0.22 5.59
7:03 am 07:03 Cloudy with Thunderstorms 57 14 N/A N/A SSW 8 13 29.88 1012 4 6 N/A
7:14 am 07:14 Cloudy with Rain 57 14 57 14 100 100 SSW 10 17 29.88 1012 4 6 N/A
7:53 am 07:53 Cloudy with Rain 57 13.9 57 13.9 100 100 SSE 15 24 29.85 1011 6 10 0.24 6.10
8:53 am 08:53 Mostly Cloudy 57 13.9 57 13.9 100 100 S 12 19 29.84 1011 10 16 0.02 0.51
9:53 am 09:53 Cloudy 58 14.4 58 14.4 100 100 S 15 24 29.81 1010 10 16 N/A
10:53 am 10:53 Mostly Cloudy with Light Rain 59 15 57 13.9 93 93 S 15 24 29.86 1011 10 16 N/A
11:45 am 11:45 Cloudy 59 15 56 13.3 90 90 SW 9 15 29.88 1012 10 16 N/A
11:53 am 11:53 Cloudy with Light Rain 58 14.4 57 13.9 97 97 SSW 7 11 29.89 1012 8 13 0.01 0.25
12:16 pm 12:16 Cloudy with Rain 57 14 57 14 100 100 SSW 8 13 29.91 1013 4 6 N/A
12:53 pm 12:53 Cloudy with Light Rain 57 13.9 57 13.9 100 100 S 6 9 29.88 1012 4 6 0.16 4.06
1:53 pm 13:53 Cloudy 61 16.1 60 15.6 97 97 S 13 20 29.80 1009 10 16 N/A
2:36 pm 14:36 Cloudy 63 17 61 16 94 94 SSW 15 24 29.80 1009 10 16 N/A
2:53 pm 14:53 Mostly Cloudy 64 17.8 60 15.6 87 87 S 12 19 29.77 1008 10 16 N/A
3:03 pm 15:03 Mostly Cloudy 64 18 59 15 83 83 S 15 24 29.77 1008 10 16 N/A
3:53 pm 15:53 Cloudy 64 17.8 59 15 84 84 SSW 13 20 29.76 1008 10 16 N/A
4:53 pm 16:53 Cloudy 65 18.3 59 15 81 81 SW 9 15 29.72 1007 10 16 N/A
5:13 pm 17:13 Cloudy with Rain 59 15 56 13.3 90 90 N 28 44 29.77 1008 3 4 0.03 0.76
5:15 pm 17:15 Cloudy with Rain 56 13.3 54 12.2 93 93 N 24 39 29.77 1008 3 5 0.04 1.02
5:25 pm 17:25 Cloudy with Light Rain 52 11.1 50 10 93 93 NNW 23 37 29.80 1009 3 5 0.05 1.27
5:53 pm 17:53 Cloudy 52 11.1 47 8.3 83 83 N 12 19 29.79 1009 10 16 0.05 1.27
6:53 pm 18:53 Cloudy with Light Rain 50 10 48 8.9 93 93 N 13 20 29.86 1011 8 13 0.02 0.51
7:07 pm 19:07 Cloudy with Light Rain 49 9.4 46 7.8 90 90 N 12 19 29.91 1013 9 14 N/A
7:53 pm 19:53 Cloudy 47 8.3 44 6.7 90 90 N 14 22 29.91 1013 10 16 N/A
8:26 pm 20:26 Cloudy 46 8 43 6 87 87 N 13 20 29.94 1014 10 16 N/A
8:53 pm 20:53 Cloudy 47 8.3 43 6.1 86 86 NNW 9 15 29.94 1014 10 16 N/A
9:53 pm 21:53 Cloudy 47 8.3 42 5.6 83 83 N N/A 29.98 1015 10 16 N/A
10:53 pm 22:53 Cloudy 47 8.3 42 5.6 83 83 NW 5 7 30.01 1016 10 16 N/A
11:53 pm 23:53 Mostly Cloudy 47 8.3 41 5 80 80 VRB 6 9 30.05 1018 10 16 N/A

Powered by AerisWeather